Wolf Point, MT

9:09 PM MDT on May 23, 2017 (GMT -0600)
Clayton

Weather History for KOLF - October, 2013

Change the Weather History Date:

Friday, October 18, 2013

  Actual Average Record
Temperature  
Mean Temperature 44 °F -  
Max Temperature 56 °F 57 °F 84 °F (2003)
Min Temperature 31 °F 29 °F 20 °F (2010)
Degree Days  
Heating Degree Days 21    
Cooling Degree Days 0    
Moisture  
Dew Point 32 °F    
Average Humidity 69    
Maximum Humidity 92    
Minimum Humidity 37    
Precipitation  
Precipitation 0.01 in 0.03 in 0.19 in (2004)
Month to date precipitation 0.17 0.51  
Year to date precipitation 12.96 11.19  
Sea Level Pressure  
Sea Level Pressure 30.04 in    
Wind  
Wind Speed 8 mph (West)    
Max Wind Speed 15 mph    
Max Gust Speed 21 mph    
Visibility 10 miles    
Events      
T = Trace of Precipitation, MM = Missing Value Source: NWS Daily Summary

Daily Weather History Graph

Daily Weather History Graph

Search for Another Location

Airport or City:

Trip Planner

Search our weather history database for the weather conditions in past years. The results will help you decide how hot, cold, wet, or windy it might be!

Date:

Astronomy

Oct. 18, 2013 Rise Set
Actual Time 7:26 AM MDT 6:07 PM MDT
Civil Twilight 6:55 AM MDT 6:38 PM MDT
Nautical Twilight 6:18 AM MDT 7:14 PM MDT
Astronomical Twilight 5:42 AM MDT 7:50 PM MDT
Moon 5:56 PM MDT (10/18) 7:05 AM MDT (10/18)
Length of Visible Light 11h 43m
Length of Day
10h 40m
Full, 100% of the Moon is Illuminated
Oct 18
Full
Oct 18
Full
Oct 26
Last Quarter
Nov 3
New
Nov 9
First Quarter

Hourly Weather History & Observations

Time (MDT) Temp. Windchill Dew Point Humidity Pressure Visibility Wind Dir Wind Speed Gust Speed Precip Events Conditions
12:53 AM 33.1 °F 26.1 °F 30.0 °F 89% 30.14 in 10.0 mi West 8.1 mph - N/A   Mostly Cloudy
1:53 AM 33.1 °F 26.1 °F 30.0 °F 89% 30.14 in 10.0 mi WSW 8.1 mph - N/A   Overcast
2:53 AM 33.1 °F 27.7 °F 30.9 °F 92% 30.14 in 10.0 mi WSW 5.8 mph - 0.01 in   Overcast
3:53 AM 33.1 °F 26.1 °F 30.9 °F 92% 30.14 in 10.0 mi WSW 8.1 mph - N/A   Mostly Cloudy
4:53 AM 34.0 °F 27.2 °F 30.9 °F 89% 30.13 in 10.0 mi West 8.1 mph - N/A   Overcast
5:53 AM 34.0 °F 28.8 °F 32.0 °F 92% 30.14 in 10.0 mi WSW 5.8 mph - N/A   Overcast
6:53 AM 35.1 °F 29.3 °F 32.0 °F 89% 30.14 in 10.0 mi West 6.9 mph - N/A   Overcast
7:53 AM 35.1 °F 28.6 °F 33.1 °F 92% 30.14 in 8.0 mi West 8.1 mph - N/A   Overcast
8:53 AM 37.0 °F 29.3 °F 33.1 °F 86% 30.14 in 10.0 mi WSW 11.5 mph - N/A   Overcast
9:53 AM 37.9 °F 30.9 °F 34.0 °F 86% 30.12 in 10.0 mi WSW 10.4 mph - N/A   Overcast
10:53 AM 39.9 °F 35.8 °F 34.0 °F 79% 30.12 in 10.0 mi West 5.8 mph - N/A   Overcast
11:53 AM 45.0 °F 39.3 °F 36.0 °F 71% 30.09 in 10.0 mi West 11.5 mph - N/A   Clear
12:53 PM 46.9 °F - 35.1 °F 63% 30.05 in 10.0 mi West 10.4 mph - N/A   Overcast
1:53 PM 50.0 °F - 33.1 °F 52% 30.02 in 10.0 mi West 13.8 mph 20.7 mph N/A   Overcast
2:53 PM 51.1 °F - 33.1 °F 50% 29.99 in 10.0 mi West 15.0 mph - N/A   Overcast
3:53 PM 53.1 °F - 32.0 °F 45% 29.96 in 10.0 mi WSW 12.7 mph - N/A   Overcast
4:53 PM 55.0 °F - 28.9 °F 37% 29.93 in 10.0 mi West 13.8 mph - N/A   Overcast
5:53 PM 52.0 °F - 28.0 °F 40% 29.93 in 10.0 mi West 9.2 mph - N/A   Overcast
6:53 PM 51.1 °F - 28.9 °F 43% 29.91 in 10.0 mi West 8.1 mph - N/A   Overcast
7:53 PM 50.0 °F - 30.0 °F 46% 29.91 in 10.0 mi West 6.9 mph - N/A   Overcast
8:53 PM 48.0 °F - 32.0 °F 54% 29.90 in 10.0 mi West 6.9 mph - N/A   Overcast
9:53 PM 46.9 °F - 33.1 °F 59% 29.89 in 10.0 mi West 5.8 mph - N/A   Overcast
10:53 PM 44.1 °F - 33.1 °F 65% 29.89 in 10.0 mi Calm Calm - N/A   Overcast
11:53 PM 43.0 °F 40.3 °F 33.1 °F 68% 29.88 in 10.0 mi West 4.6 mph - N/A   Overcast